Tracking 26955 objects as of 3-Feb-2023
HD Live streaming from Space Station
objects crossing your sky now

SJ-23

Track SJ-23 now!


NORAD ID: 55131
Int'l Code: 2023-002A
Perigee: 35,941.6 km
Apogee: 35,975.6 km
Inclination: 0.5 °
Period: 1,444.5 minutes
Semi major axis: 42329 km
RCS: Unknown
Launch date: January 8, 2023
Source: People's Republic of China (PRC)
Launch site: Wenchang Satellite Launch Center (WSC)
Your satellite tracking list
Your tracking list is empty




NASA's NSSDC Master Catalog

Two Line Element Set (TLE):
1 55131U 23002A   23033.09301811 -.00000265  00000-0  00000-0 0  9990
2 55131   0.5414  95.0354 0004023  49.7330 131.0976  0.99686599   347
Source of the keplerian elements: AFSPC